Tracking 29967 objects as of 5-Dec-2024
HD Live streaming from Space Station
objects crossing your sky now

STARLINK-31157

Track STARLINK-31157 now!
10-day predictions
STARLINK-31157 is classified as:


NORAD ID: 58735
Int'l Code: 2024-005H
Perigee: 565.3 km
Apogee: 567.1 km
Inclination: 43.0 °
Period: 95.8 minutes
Semi major axis: 6937 km
RCS: Unknown
Launch date: January 7, 2024
Source: United States (US)
Launch site: AIR FORCE EASTERN TEST RANGE (AFETR)
Your satellite tracking list
Your tracking list is empty




NASA's NSSDC Master Catalog

Two Line Element Set (TLE):
1 58735U 24005H   24340.30102034  .00001212  00000-0  10479-3 0  9995
2 58735  43.0035 198.1524 0001348 266.4063  93.6625 15.02537993 51313
Source of the keplerian elements: AFSPC